CALSPHERE 1 1 00900U 64063C 12136.87998028 .00000556 00000-0 61022-3 0 6900 2 00900 90.1420 343.8849 0025918 292.4637 67.3771 13.71157489365184 CALSPHERE 2 1 00902U 64063E 12135.61569329 .00000075 00000-0 10000-3 0 6648 2 00902 90.1434 346.4327 0020143 46.9778 313.3053 13.52518354160972 LCS 1 1 01361U 65034C 12135.46050011 .00000009 00000-0 10000-3 0 4413 2 01361 32.1392 156.9788 0006932 185.9796 174.0620 9.89282710700555 TEMPSAT 1 1 01512U 65065E 12136.87752532 .00000059 00000-0 10000-3 0 7124 2 01512 89.7825 279.1324 0068861 296.2874 63.1202 13.33300009274363 CALSPHERE 4(A) 1 01520U 65065H 12136.39593254 .00000060 00000-0 10000-3 0 8857 2 01520 90.1548 101.1550 0068506 210.0329 149.6878 13.35436354276142 OPS 5712 (P/L 160) 1 02826U 67053A 12137.27378348 .00001866 00000-0 60473-3 0 6109 2 02826 69.9322 238.7574 0005489 132.6065 227.5527 14.40488679320372 OPS 5712 (P/L 153) 1 02874U 67053H 12135.62176067 .00000033 00000-0 63148-4 0 734 2 02874 69.9705 337.9804 0005711 20.7437 339.3897 13.96025573288810 SURCAL 150B 1 02909U 67053J 12136.85340705 .00002416 00000-0 64715-3 0 8017 2 02909 69.9512 23.4752 0005461 243.1462 116.9113 14.49380984326884 RIGIDSPHERE 2 (LCS 4) 1 05398U 71067E 12136.91076122 .00000484 00000-0 17106-3 0 4716 2 05398 87.6223 317.6445 0062971 282.9998 76.4173 14.31764111136723 RADCAT 1 06212U 72076A 12136.42129182 .00124509 00000-0 10101-2 0 6695 2 06212 98.5702 334.4811 0003272 214.1772 145.9724 15.70347505286180